• In Hungary
  • List of Countries
  • For 7 days
  • Water Temperature
  • Satellite Maps
  • Weather Map
  • News
  • Weather Widgets
  • user-avatar
    Login

    Hourly Weather Pulau Komodo

    Today, 17 December, Sunday

    Time Temperature Precipitation Wind Pressure Humidity
    00:00 +29°C° 0.3 mm 4 mps 755 mmHg 84%
    01:00 +29°C° 0.3 mm 4 mps 755 mmHg 84%
    02:00 +29°C° 0 mm 3 mps 755 mmHg 85%
    03:00 +28°C° 0.3 mm 3 mps 755 mmHg 86%
    04:00 +28°C° 0.3 mm 3 mps 755 mmHg 86%
    05:00 +28°C° 0.3 mm 3 mps 755 mmHg 87%
    06:00 +29°C° 0.6 mm 3 mps 755 mmHg 84%
    07:00 +30°C° 0.6 mm 3 mps 756 mmHg 82%
    08:00 +31°C° 0 mm 3 mps 756 mmHg 80%
    09:00 +31°C° 1.1 mm 3 mps 756 mmHg 79%
    10:00 +33°C° 1.1 mm 3 mps 756 mmHg 77%
    11:00 +33°C° 1.1 mm 3 mps 756 mmHg 75%
    12:00 +33°C° 1.4 mm 4 mps 755 mmHg 76%
    13:00 +33°C° 1.4 mm 4 mps 755 mmHg 77%
    14:00 +33°C° 0 mm 4 mps 754 mmHg 77%
    15:00 +33°C° 0.7 mm 4 mps 754 mmHg 77%
    16:00 +32°C° 0.7 mm 4 mps 754 mmHg 78%
    17:00 +32°C° 0.7 mm 5 mps 754 mmHg 78%
    18:00 +30°C° 0.3 mm 4 mps 754 mmHg 80%
    19:00 +29°C° 0.3 mm 4 mps 755 mmHg 83%
    20:00 +28°C° 0 mm 4 mps 755 mmHg 88%
    21:00 +28°C° 0.1 mm 4 mps 755 mmHg 88%
    22:00 +28°C° 0.1 mm 4 mps 755 mmHg 88%
    23:00 +28°C° 0.1 mm 4 mps 755 mmHg 87%

    Tomorrow, 18 December, Monday

    Time Temperature Precipitation Wind Pressure Humidity
    00:00 +28°C° 0.5 mm 4 mps 755 mmHg 87%
    01:00 +28°C° 0.5 mm 4 mps 755 mmHg 87%
    02:00 +28°C° 0.5 mm 4 mps 754 mmHg 87%
    03:00 +28°C° 0.6 mm 4 mps 754 mmHg 87%
    04:00 +28°C° 0.6 mm 4 mps 754 mmHg 87%
    05:00 +28°C° 0.6 mm 4 mps 754 mmHg 87%
    06:00 +29°C° 0.8 mm 4 mps 755 mmHg 83%
    07:00 +30°C° 0.8 mm 4 mps 755 mmHg 78%
    08:00 +32°C° 0.8 mm 4 mps 755 mmHg 74%
    09:00 +32°C° 0.8 mm 4 mps 755 mmHg 75%
    10:00 +33°C° 0.8 mm 4 mps 755 mmHg 76%
    11:00 +33°C° 0.8 mm 5 mps 755 mmHg 77%
    12:00 +33°C° 0.2 mm 5 mps 755 mmHg 74%
    13:00 +34°C° 0.2 mm 5 mps 754 mmHg 71%
    14:00 +34°C° 0.2 mm 5 mps 754 mmHg 68%
    15:00 +33°C° 0.4 mm 5 mps 754 mmHg 70%
    16:00 +33°C° 0.4 mm 4 mps 753 mmHg 72%
    17:00 +32°C° 0.4 mm 4 mps 753 mmHg 74%
    18:00 +30°C° 0.9 mm 4 mps 754 mmHg 77%
    19:00 +30°C° 0.9 mm 4 mps 754 mmHg 80%
    20:00 +29°C° 0.9 mm 4 mps 754 mmHg 83%
    21:00 +29°C° 0.8 mm 4 mps 755 mmHg 83%
    22:00 +29°C° 0.8 mm 4 mps 755 mmHg 84%
    23:00 +29°C° 0.8 mm 4 mps 755 mmHg 84%

    Day after tomorrow, 19 December, Tuesday

    Time Temperature Precipitation Wind Pressure Humidity
    00:00 +29°C° 0.8 mm 4 mps 755 mmHg 84%
    01:00 +29°C° 0.8 mm 4 mps 754 mmHg 84%
    02:00 +29°C° 0.8 mm 4 mps 754 mmHg 84%
    03:00 +29°C° 1.1 mm 4 mps 754 mmHg 84%
    04:00 +29°C° 1.1 mm 4 mps 754 mmHg 84%
    05:00 +29°C° 1.1 mm 4 mps 754 mmHg 84%
    06:00 +29°C° 1.1 mm 4 mps 754 mmHg 82%
    07:00 +29°C° 1.1 mm 4 mps 755 mmHg 80%
    08:00 +30°C° 1.1 mm 4 mps 755 mmHg 79%
    09:00 +32°C° 0.7 mm 4 mps 755 mmHg 75%
    10:00 +33°C° 0.7 mm 4 mps 755 mmHg 72%
    11:00 +33°C° 0.7 mm 4 mps 755 mmHg 68%
    12:00 +34°C° 0.5 mm 4 mps 754 mmHg 68%
    13:00 +34°C° 0.5 mm 5 mps 754 mmHg 68%
    14:00 +34°C° 0.5 mm 5 mps 753 mmHg 67%
    15:00 +33°C° 0.8 mm 5 mps 753 mmHg 70%
    16:00 +33°C° 0.8 mm 5 mps 753 mmHg 74%
    17:00 +32°C° 0.8 mm 5 mps 753 mmHg 77%
    18:00 +30°C° 1.2 mm 5 mps 753 mmHg 79%
    19:00 +30°C° 1.2 mm 5 mps 754 mmHg 82%
    20:00 +29°C° 1.2 mm 5 mps 754 mmHg 84%
    21:00 +29°C° 1.4 mm 5 mps 755 mmHg 86%
    22:00 +29°C° 1.4 mm 5 mps 755 mmHg 87%
    23:00 +28°C° 1.4 mm 5 mps 755 mmHg 88%

    20 December, Wednesday

    Time Temperature Precipitation Wind Pressure Humidity
    00:00 +28°C° 1.4 mm 5 mps 755 mmHg 89%
    01:00 +28°C° 1.4 mm 5 mps 754 mmHg 89%
    02:00 +28°C° 1.4 mm 5 mps 754 mmHg 89%
    03:00 +28°C° 1.2 mm 5 mps 754 mmHg 89%
    04:00 +28°C° 1.2 mm 5 mps 754 mmHg 89%
    05:00 +28°C° 1.2 mm 5 mps 754 mmHg 89%
    06:00 +28°C° 1 mm 5 mps 754 mmHg 88%
    07:00 +29°C° 1 mm 5 mps 755 mmHg 87%
    08:00 +30°C° 1 mm 5 mps 755 mmHg 85%
    09:00 +30°C° 0.8 mm 5 mps 755 mmHg 81%
    10:00 +32°C° 0.8 mm 5 mps 755 mmHg 77%
    11:00 +33°C° 0.8 mm 5 mps 755 mmHg 74%
    12:00 +33°C° 0.8 mm 5 mps 755 mmHg 75%
    13:00 +33°C° 0.8 mm 5 mps 754 mmHg 76%
    14:00 +33°C° 0.8 mm 5 mps 753 mmHg 77%
    15:00 +32°C° 0.7 mm 5 mps 753 mmHg 79%
    16:00 +32°C° 0.7 mm 6 mps 753 mmHg 81%
    17:00 +30°C° 0.7 mm 6 mps 753 mmHg 82%
    18:00 +30°C° 0.4 mm 5 mps 754 mmHg 84%
    19:00 +29°C° 0.4 mm 5 mps 754 mmHg 86%
    20:00 +28°C° 0.4 mm 5 mps 755 mmHg 87%
    21:00 +28°C° 0.8 mm 5 mps 755 mmHg 87%
    22:00 +28°C° 0.8 mm 5 mps 755 mmHg 87%
    23:00 +28°C° 0.8 mm 5 mps 756 mmHg 87%

    21 December, Thursday

    Time Temperature Precipitation Wind Pressure Humidity
    00:00 +28°C° 1 mm 5 mps 755 mmHg 88%
    01:00 +28°C° 1 mm 5 mps 754 mmHg 89%
    02:00 +28°C° 1 mm 5 mps 754 mmHg 89%
    03:00 +28°C° 0.9 mm 5 mps 754 mmHg 90%
    04:00 +28°C° 0.9 mm 5 mps 754 mmHg 90%
    05:00 +28°C° 0.9 mm 5 mps 754 mmHg 90%
    06:00 +29°C° 0.7 mm 5 mps 755 mmHg 87%
    07:00 +29°C° 0.7 mm 5 mps 755 mmHg 84%
    08:00 +30°C° 0.7 mm 4 mps 756 mmHg 80%
    09:00 +32°C° 0.3 mm 5 mps 755 mmHg 77%
    10:00 +33°C° 0.3 mm 5 mps 755 mmHg 73%
    11:00 +34°C° 0.3 mm 5 mps 755 mmHg 69%
    12:00 +34°C° 0.5 mm 5 mps 754 mmHg 70%
    13:00 +33°C° 0.5 mm 5 mps 754 mmHg 71%
    14:00 +33°C° 0.5 mm 5 mps 753 mmHg 72%
    15:00 +33°C° 0.9 mm 5 mps 753 mmHg 76%
    16:00 +32°C° 0.9 mm 4 mps 753 mmHg 80%
    17:00 +30°C° 0.9 mm 4 mps 753 mmHg 84%
    18:00 +30°C° 1.3 mm 4 mps 753 mmHg 86%
    19:00 +29°C° 1.3 mm 4 mps 754 mmHg 88%
    20:00 +28°C° 1.3 mm 4 mps 755 mmHg 90%
    21:00 +28°C° 0.8 mm 4 mps 755 mmHg 90%
    22:00 +28°C° 0.8 mm 4 mps 755 mmHg 90%
    23:00 +28°C° 0.8 mm 4 mps 755 mmHg 91%

    22 December, Friday

    Time Temperature Precipitation Wind Pressure Humidity
    00:00 +28°C° 0.8 mm 4 mps 754 mmHg 91%
    01:00 +28°C° 0.8 mm 4 mps 754 mmHg 91%
    02:00 +28°C° 0.8 mm 4 mps 753 mmHg 91%
    03:00 +28°C° 0.4 mm 4 mps 753 mmHg 91%
    04:00 +28°C° 0.4 mm 4 mps 753 mmHg 91%
    05:00 +28°C° 0.4 mm 4 mps 753 mmHg 91%
    06:00 +28°C° 0.1 mm 4 mps 754 mmHg 88%
    07:00 +29°C° 0.1 mm 4 mps 754 mmHg 86%
    08:00 +30°C° 0.1 mm 4 mps 755 mmHg 83%
    09:00 +32°C° 0.1 mm 4 mps 755 mmHg 80%
    10:00 +31°C° 0.1 mm 3 mps 754 mmHg 77%
    11:00 +33°C° 0.1 mm 3 mps 754 mmHg 73%
    12:00 +33°C° 0.5 mm 3 mps 753 mmHg 75%
    13:00 +33°C° 0.5 mm 4 mps 753 mmHg 76%
    14:00 +33°C° 0.5 mm 4 mps 752 mmHg 77%
    15:00 +32°C° 0.6 mm 4 mps 752 mmHg 78%
    16:00 +32°C° 0.6 mm 4 mps 752 mmHg 78%
    17:00 +32°C° 0.6 mm 4 mps 753 mmHg 78%
    18:00 +30°C° 1 mm 4 mps 753 mmHg 82%
    19:00 +29°C° 1 mm 3 mps 754 mmHg 85%
    20:00 +28°C° 1 mm 3 mps 754 mmHg 89%
    21:00 +28°C° 0.5 mm 4 mps 754 mmHg 89%
    22:00 +28°C° 0.5 mm 4 mps 754 mmHg 88%
    23:00 +28°C° 0.5 mm 4 mps 754 mmHg 88%
    Show more